FW7205 Weather Reports


Display with metric or nautical units.
time (UTC)temp
F
wind
direction
speed
MPH
gust
MPH
rain 1hr
in
rain 24hr
in
rain mn
in
humidity
%
barometer
mb
20260831211608 98 103 1.0 5.0 0.00 0.11 0.00 44 1012.6
20260831210100 98 0 0.0 3.0 0.00 0.11 0.00 44 1012.8
20260831204600 99 70 1.0 5.0 0.00 0.11 0.00 44 1013.0
20260831203105 99 103 0.0 3.0 0.00 0.11 0.00 43 1013.2
20260831201558 97 0 0.0 3.0 0.00 0.11 0.00 46 1013.5
20260831200100 97 0 1.0 3.0 0.00 0.11 0.00 44 1013.7
20260831194624 97 76 1.0 3.0 0.00 0.11 0.00 46 1014.1
20260831193101 98 76 2.0 5.0 0.00 0.11 0.00 46 1014.4
20260831191603 98 74 0.0 4.0 0.00 0.11 0.00 46 1014.5
20260831190111 98 69 1.0 4.0 0.00 0.11 0.00 47 1014.6
20260831184605 97 11 0.0 3.0 0.00 0.11 0.00 47 1014.7
20260831183108 97 67 1.0 4.0 0.00 0.11 0.00 47 1015.2
20260831181601 96 0 0.0 2.0 0.00 0.11 0.00 49 1015.0
20260831180101 96 117 0.0 3.0 0.00 0.11 0.00 51 1015.5
20260831174604 95 65 1.0 5.0 0.00 0.11 0.00 49 1015.7
20260831173100 95 246 0.0 6.0 0.00 0.11 0.00 50 1015.8
20260831171602 94 66 1.0 4.0 0.00 0.11 0.00 53 1015.7
20260831170107 93 0 1.0 4.0 0.00 0.11 0.00 56 1015.7
20260831164613 92 0 1.0 3.0 0.00 0.11 0.00 57 1016.0
20260831163106 90 360 0.0 3.0 0.00 0.11 0.00 59 1016.1
20260831161605 89 0 0.0 3.0 0.00 0.11 0.00 64 1016.2
20260831154629 86 133 0.0 1.0 0.00 0.11 0.00 71 1016.0
20260831153102 85 0 0.0 2.0 0.00 0.11 0.00 76 1016.0
20260831151601 84 0 0.0 1.0 0.00 0.11 0.00 79 1015.8
20260831150104 83 0 0.0 2.0 0.00 0.11 0.00 83 1015.8
20260831144610 82 0 0.0 1.0 0.00 0.11 0.00 86 1015.9
20260831143112 81 0 0.0 1.0 0.00 0.11 0.00 89 1016.0
20260831141607 80 0 0.0 0.0 0.00 0.11 0.00 90 1015.7
20260831140107 79 0 0.0 0.0 0.00 0.11 0.00 90 1015.7
20260831134604 78 0 0.0 0.0 0.00 0.11 0.00 91 1015.6
20260831133102 78 0 0.0 0.0 0.00 0.11 0.00 91 1015.7
20260831131605 77 0 0.0 0.0 0.00 0.11 0.00 90 1015.3
20260831130121 76 0 0.0 0.0 0.00 0.11 0.00 90 1015.1
20260831124606 76 0 0.0 0.0 0.00 0.11 0.00 89 1015.1
20260831123107 76 0 0.0 0.0 0.00 0.11 0.00 89 1014.8
20260831121612 76 0 0.0 0.0 0.00 0.11 0.00 89 1014.8
20260831120100 76 0 0.0 0.0 0.00 0.11 0.00 88 1014.7
20260831114607 76 0 0.0 0.0 0.00 0.11 0.00 88 1014.6
20260831113102 76 0 0.0 0.0 0.00 0.11 0.00 88 1014.4
20260831111604 76 0 0.0 0.0 0.00 0.11 0.00 87 1014.6
20260831110107 77 0 0.0 0.0 0.00 0.11 0.00 87 1014.4
20260831104605 77 0 0.0 0.0 0.00 0.11 0.00 87 1014.3
20260831103100 77 0 0.0 0.0 0.00 0.11 0.00 86 1014.4
20260831101606 77 0 0.0 0.0 0.00 0.11 0.00 86 1014.3
20260831094601 77 0 0.0 0.0 0.00 0.11 0.00 85 1014.3
20260831093102 77 0 0.0 0.0 0.00 0.11 0.00 84 1014.2
20260831091611 78 0 0.0 0.0 0.00 0.11 0.00 84 1014.0
20260831084610 78 0 0.0 0.0 0.00 0.11 0.00 84 1014.0
20260831083101 78 0 0.0 1.0 0.00 0.11 0.00 83 1014.1
20260831081607 79 0 0.0 0.0 0.00 0.11 0.00 82 1014.2
20260831074604 79 0 0.0 0.0 0.00 0.11 0.00 81 1014.4
20260831073111 79 0 0.0 0.0 0.00 0.11 0.00 81 1014.3
20260831071606 80 0 0.0 0.0 0.00 0.11 0.00 80 1014.5
20260831070112 80 0 0.0 0.0 0.00 0.11 0.00 80 1014.4
20260831064604 80 0 0.0 0.0 0.00 0.11 0.00 79 1014.5
20260831063109 81 0 0.0 0.0 0.00 0.11 0.00 79 1014.6
20260831061601 81 0 0.0 1.0 0.00 0.11 0.00 78 1014.7
20260831060114 81 0 0.0 1.0 0.00 0.11 0.00 77 1014.5
20260831054605 82 0 0.0 1.0 0.00 0.11 0.00 77 1014.5
20260831053105 82 0 0.0 2.0 0.00 0.11 0.00 76 1014.4
20260831051606 83 0 0.0 1.0 0.00 0.11 0.00 75 1014.3
20260831050103 83 0 0.0 1.0 0.00 0.11 0.00 75 1014.2
20260831044608 83 0 0.0 1.0 0.00 0.11 0.11 74 1014.2
20260831043103 84 0 0.0 2.0 0.00 0.11 0.11 73 1014.0
20260831041645 84 0 0.0 1.0 0.00 0.11 0.11 72 1014.1
20260831040109 84 209 0.0 1.0 0.00 0.11 0.11 70 1014.2
20260831034606 85 0 0.0 1.0 0.00 0.11 0.11 69 1013.9
20260831033102 85 0 0.0 2.0 0.00 0.11 0.11 67 1013.7
20260831031559 85 200 0.0 2.0 0.00 0.11 0.11 66 1013.4
20260831030108 85 0 0.0 2.0 0.00 0.11 0.11 65 1013.4
20260831024621 85 115 0.0 1.0 0.00 0.11 0.11 64 1013.2
20260831023113 84 136 0.0 2.0 0.00 0.11 0.11 63 1012.9
20260831021604 84 0 0.0 1.0 0.02 0.11 0.11 61 1012.6
20260831020104 85 0 0.0 0.0 0.06 0.11 0.11 64 1012.3
20260831014601 87 0 0.0 0.0 0.09 0.17 0.11 61 1012.3
20260831013110 88 0 0.0 0.0 0.11 0.17 0.11 60 1012.0
20260831011600 89 0 0.0 0.0 0.09 0.15 0.09 60 1011.9
20260831010122 91 0 0.0 0.0 0.05 0.11 0.05 57 1012.0
20260831004601 93 0 0.0 1.0 0.02 0.09 0.02 52 1011.8
20260831003106 94 0 0.0 2.0 0.00 0.07 0.00 50 1011.8
20260831001607 94 0 0.0 2.0 0.00 0.07 0.00 47 1011.9
20260831000118 95 136 0.0 3.0 0.00 0.07 0.00 46 1012.0
20260830234603 95 0 0.0 5.0 0.00 0.07 0.00 43 1012.0
20260830233104 96 252 0.0 2.0 0.00 0.07 0.00 43 1011.9
20260830231603 97 0 1.0 4.0 0.00 0.07 0.00 42 1012.0
20260830230107 97 134 0.0 2.0 0.00 0.07 0.00 42 1012.1
20260830224605 98 125 0.0 4.0 0.00 0.07 0.00 43 1011.9
20260830223134 98 129 1.0 4.0 0.00 0.07 0.00 42 1012.0
20260830221608 98 0 0.0 4.0 0.00 0.07 0.00 42 1012.3
20260830220107 98 133 0.0 3.0 0.00 0.07 0.00 40 1012.2
20260830214606 98 0 1.0 4.0 0.00 0.07 0.00 42 1012.3
20260830213105 98 134 1.0 3.0 0.00 0.07 0.00 41 1012.7